Location: Columbia
(38.9520°N, 92.3340°W)
Time: 23:30:59
(UTC-05:00)

Tiangong 1 - Visible Passes

Search period start: 24 July 2017 00:00
Search period end: 03 August 2017 00:00
Orbit: 315 x 342 km, 42.8° (Epoch: 24 July)

Date Brightness Start Highest point End Pass type
(mag) Time Alt. Az. Time Alt. Az. Time Alt. Az.
24 Jul 3.3 05:26:20 10° S 05:27:48 13° SE 05:29:16 10° ESE visible
26 Jul 3.3 04:28:22 12° SE 04:28:29 12° SE 04:29:44 10° ESE visible
27 Jul 1.9 04:45:29 25° S 04:46:14 30° SSE 04:48:43 10° E visible
28 Jul 0.7 05:02:31 22° WSW 05:04:05 76° SSE 05:06:51 10° ENE visible
29 Jul 3.5 03:48:24 15° E 03:48:24 15° E 03:49:03 10° E visible
29 Jul 1.3 05:19:28 11° W 05:22:01 53° NNW 05:24:44 10° ENE visible
30 Jul 2.1 04:05:18 36° E 04:05:18 36° E 04:07:07 10° ENE visible
31 Jul 1.1 04:22:09 55° NNW 04:22:12 56° NNW 04:24:55 10° ENE visible
01 Aug 2.0 04:38:58 24° WNW 04:40:05 37° N 04:42:41 10° ENE visible
02 Aug 4.2 03:24:44 11° ENE 03:24:44 11° ENE 03:24:55 10° ENE visible
02 Aug 2.2 04:55:47 13° WNW 04:57:57 34° N 05:00:30 10° ENE visible
